Miscellaneous Local Product
Issued by NWS Hastings, NE

Home | Current Version | Previous Version | Graphics & Text | Print | Product List | Glossary On
Versions: 1 2 3 4 5 6 7 8 9 10 11 12 13 14 15 16 17 18 19 20 21 22 23 24 25 26 27 28 29 30 31 32 33 34 35 36 37 38 39 40 41 42 43 44 45 46 47 48 49 50
735
AXUS43 KGID 021702
MISGRI

GID CWA HOURLY WEATHER ROUNDUP
NATIONAL WEATHER SERVICE HASTINGS NE
1200 PM CDT MON MAY 02 2016

NOTE: "FAIR" INDICATES FEW OR NO CLOUDS BELOW 12,000 FEET WITH NO
SIGNIFICANT WEATHER AND/OR OBSTRUCTIONS TO VISIBILITY.

...SOUTH CENTRAL NEBRASKA...

CITY           SKY/WX    TMP DP  RH WIND       PRES   REMARKS
GRAND ISLAND   PTSUNNY   57  36  45 NW10      30.16F
HASTINGS       SUNNY     56  36  47 VRB6G16   30.15F
KEARNEY        MOSUNNY   54  34  47 NW3       30.17F
ORD            SUNNY     57  35  43 N8        30.14F
YORK           MOSUNNY   57  39  51 N10       30.15S
AURORA         MOSUNNY   57  39  51 NW9       30.15F
LEXINGTON      SUNNY     55  35  47 CALM      30.17F
HOLDREGE       SUNNY     53  35  50 NW7       30.17S
HEBRON         MOSUNNY   58  38  48 NE7       30.15S

...NEBRASKA PANHANDLE...

CITY           SKY/WX    TMP DP  RH WIND       PRES   REMARKS
CHADRON        SUNNY     58  34  40 NW17      30.14F
ALLIANCE       SUNNY     51  38  60 MISG      30.16F
SCOTTSBLUFF    SUNNY     55  35  47 W12       30.19F
SIDNEY         SUNNY     51  32  48 NW10      30.21S

...WESTERN AND NORTH CENTRAL NEBRASKA...

CITY           SKY/WX    TMP DP  RH WIND       PRES   REMARKS
VALENTINE      CLOUDY    56  33  42 NW7       30.12F
AINSWORTH      PTSUNNY   57  33  41 W7        30.13F
ONEILL         PTSUNNY   57  32  38 SW3       30.14F
BROKEN BOW     SUNNY     54  36  50 SW6       30.15F
IMPERIAL       SUNNY     55  34  45 N10G21    30.19F
NORTH PLATTE   SUNNY     56  36  47 W8        30.16F
MCCOOK         SUNNY     57  38  48 VRB6      30.17F

...EASTERN NEBRASKA...

CITY           SKY/WX    TMP DP  RH WIND       PRES   REMARKS
NORFOLK        MOSUNNY   56  34  43 NW7       30.13F
SO SIOUX CITY  MOSUNNY   62  39  42 N6        30.13F
TEKAMAH        SUNNY     60  39  45 N6        30.13S
COLUMBUS       SUNNY     57  36  44 NE6       30.15S
ALBION         SUNNY     57  36  44 W5        30.13F
OMAHA EPPLEY   MOSUNNY   60  43  53 VRB3      30.13S
OFFUTT AFB     SUNNY     60  42  52 N7        30.12F
MILLARD        SUNNY     59  39  47 N6        30.13F
LINCOLN        MOSUNNY   60  38  43 N5        30.15S
NEBRASKA CITY  MOSUNNY   56  43  61 NE6G16    30.13S
BEATRICE       MOSUNNY   58  41  52 N10       30.14S
FALLS CITY     CLOUDY    56  46  69 VRB7      30.13R

...NORTHERN KANSAS...

CITY           SKY/WX    TMP DP  RH WIND       PRES   REMARKS
GOODLAND       SUNNY     54  31  41 NW13G29   30.20S
HILL CITY      MOSUNNY   59  36  42 NW10      30.19F
NORTON         SUNNY     55  34  44 NW13G20   30.17F
PHILLIPSBURG   SUNNY     57  37  47 NW13G21   30.18S
SMITH CENTER   PTSUNNY   55  41  58 NW7       30.18S
BELOIT         MOSUNNY   57  34  41 NW9       30.16S
HAYS           MOSUNNY   57  34  41 NW12G17   30.19S
RUSSELL        PTSUNNY   58  37  45 W8        30.17S
CONCORDIA      CLOUDY    58  40  51 NW10      30.16S
SALINA         CLOUDY    61  44  53 N10       30.17F
TOPEKA         CLOUDY    56  43  61 N9        30.12F



USA.gov is the U.S. government's official web portal to all federal, state and local government web resources and services.